[Iaude] MPEC T181: 2023 TE7 [a=1.15,e=0.47,i=14.7,H=22.5]

mpec at marsden.cfa.harvard.edu mpec at marsden.cfa.harvard.edu
Thu Oct 12 02:00:01 EDT 2023


M.P.E.C. 2023-T181                             Issued 2023 October 12, 05:58 UT

     The Minor Planet Electronic Circulars contain information on unusual
         minor planets, routine data on comets and natural satellites,
         and occasional editorial announcements.  They are published
    on behalf of Division F of the International Astronomical Union by the
          Minor Planet Center, Smithsonian Astrophysical Observatory,
                          Cambridge, MA 02138, U.S.A.
			  
             Prepared using the Tamkin Foundation Computer Network

                              MPC at CFA.HARVARD.EDU
            URL https://www.minorplanetcenter.net/    ISSN 1523-6714

                                    2023 TE7                                    


Observations:
     K23T07E 1C2023 10 05.32978 01 17 05.67 +07 46 06.4          21.3 GVET181G96
     K23T07E 1C2023 10 05.33546 01 17 04.92 +07 45 52.6                VET181G96
     K23T07E 1C2023 10 05.34112 01 17 04.19 +07 45 39.1                VET181G96
     K23T07E 1C2023 10 05.34680 01 17 03.40 +07 45 26.2          21.7 GVET181G96
     K23T07E* C2023 10 11.42556401 02 46.846+03 14 57.75         21.43wXET181F51
     K23T07E  C2023 10 11.45096901 02 42.690+03 13 43.77         21.49wXET181F51
     K23T07E  C2023 10 11.46367001 02 40.614+03 13 06.46         21.42wXET181F51
     K23T07E  C2023 10 11.55437901 02 25.878+03 08 40.68         21.23GVET181F51
     K23T07E  C2023 10 11.55519101 02 25.738+03 08 38.03         20.97GVET181F51
     K23T07E  C2023 10 11.55600701 02 25.611+03 08 35.97         21.15GVET181F51
     K23T07E  C2023 10 11.55681801 02 25.480+03 08 33.34         20.98GVET181F51
     K23T07E KC2023 10 12.20028501 00 46.948+02 36 46.62         21.05GVET181I52
     K23T07E KC2023 10 12.20424901 00 46.253+02 36 35.75         20.99GVET181I52
     K23T07E KC2023 10 12.20819501 00 45.623+02 36 24.23         21.07GVET181I52

Observer details:
F51 Pan-STARRS 1, Haleakala.  Observers J. Bulger, T. Lowe, P. Minguez, A.
    Schultz, I. Smith.  Measurers K. Chambers, T. de Boer, J. Bulger, J.
    Fairlamb, H. Gao, M. Huber, C.-C. Lin, T. Lowe, E. Magnier, P. Minguez, Y.
    Ramanjooloo, A. Schultz, I. Smith, R. Wainscoat, R. Weryk.  1.8-m Ritchey-
    Chretien + CCD.
G96 Mt. Lemmon Survey.  Observer G. J. Leonard.  Measurers B. Gray, D. Rankin,
    F. C. Shelly.  1.5-m reflector + 10K CCD.
I52 Steward Observatory, Mt. Lemmon Station.  Observer J. B. Fazekas.
    Measurers E. C. Beshore, D. Fay, J. B. Fazekas, D. C. Fuls, A. R. Gibbs,
    A. D. Grauer, H. Groeller, J. K. Hogan, R. A. Kowalski, S. M. Larson, G.
    J. Leonard, D. Rankin, R. L. Seaman, F. C. Shelly, K. W. Wierzchos.  1.0-m
    prime focus + CCD.

Orbital elements:
2023 TE7                                                 Earth MOID = 0.1498 AU
Epoch 2023 Sept. 13.0 TT = JDT 2460200.5                Veres                   
M 249.39472              (2000.0)            P               Q                  
n   0.79435623     Peri.  319.97665     -0.89180230     -0.44836442             
a   1.1546735      Node   193.76746     +0.45207270     -0.87783198             
e   0.4708408      Incl.   14.72280     +0.01785863     -0.16846470             
P   1.24           H   22.57          G   0.15           U   9                  
Residuals in seconds of arc
231005 G96  0.3-  0.2-    231011 F51  0.1-  0.2+    231011 F51  0.0   0.0
231005 G96  0.1-  0.3-    231011 F51  0.1-  0.1+    231012 I52  0.3+  0.7-
231005 G96  0.4+  0.2-    231011 F51  0.1+  0.2+    231012 I52  0.3-  0.2+
231005 G96  0.0   0.6+    231011 F51  0.0   0.1-    231012 I52  0.0   0.4+
231011 F51  0.1-  0.1-    231011 F51  0.0   0.2+

Ephemeris:
2023 TE7                 a,e,i = 1.15, 0.47, 15                  q = 0.6110
Date    TT    R. A. (2000) Decl.     Delta      r    Elong.  Phase     V
2023 09 12    01 45 07.5 +17 29 00   0.6114  1.5155   137.6    26.6    23.6
...
2023 09 27    01 31 53.2 +12 30 53   0.4675  1.4451   157.3    15.5    22.6
...
2023 10 05    01 17 47.4 +07 59 27   0.4066  1.4027   170.2     7.0    21.9
...
2023 10 11    01 03 52.3 +03 35 43   0.3704  1.3686   176.9     2.3    21.4
2023 10 12    01 01 17.7 +02 46 57   0.3652  1.3627   175.5     3.3    21.4
2023 10 13    00 58 39.2 +01 56 56   0.3603  1.3568   173.8     4.6    21.4
...
2023 10 19    00 41 38.0 -03 25 22   0.3365  1.3200   161.7    13.7    21.6
...
2023 10 27    00 17 09.6 -11 05 00   0.3193  1.2681   144.7    26.9    21.8
...
2023 11 11    23 33 56.8 -24 03 03   0.3215  1.1615   114.6    50.8    22.3

M. P. C. Staff               (C) Copyright 2023 MPC           M.P.E.C. 2023-T181





More information about the Iaude mailing list